Location: Czekan�w
(50.3488°N, 18.7344°E)
Time: 17:40:06
(UTC+00:00)

CZ-2C R/B - Pass Details

Date: 17 February 2020
Orbit: 668 x 785 km, 98.1° (Epoch: 28 March)

Event Time Altitude Azimuth Distance (km) Brightness Sun altitude
Rises 04:38:11 0° 5° (N) 3,289 5.8 -12.7°
Reaches altitude 10° 04:40:58 10° 351° (N) 2,356 4.9 -12.2°
Maximum altitude 04:44:52 22° 302° (WNW) 1,665 3.7 -11.6°
Enters shadow 04:47:48 14° 261° (W) 2,071 4.1 -11.1°
